Time,TemperatureF,DewpointF,PressureIn,WindDirection,WindDirectionDegrees,WindSpeedMPH,WindSpeedGustMPH,Humidity,HourlyPrecipIn,Conditions,Clouds,dailyrainin,SoftwareType,DateUTC
2013-03-31 00:02:00,59.7,53.6,29.96,North,0,0.0,2.0,80,0.00,,,0.00,meteohub,2013-03-31 07:02:00,
2013-03-31 00:07:00,59.7,53.6,29.96,North,0,0.0,2.0,80,0.00,,,0.00,meteohub,2013-03-31 07:07:00,
2013-03-31 00:12:00,59.5,54.0,29.96,SW,225,0.0,2.0,82,0.00,,,0.00,meteohub,2013-03-31 07:12:00,
2013-03-31 00:17:00,59.4,54.1,29.96,SW,225,0.0,1.0,83,0.01,,,0.01,meteohub,2013-03-31 07:17:00,
2013-03-31 00:22:00,59.2,54.0,29.95,NW,315,0.0,1.0,83,0.01,,,0.01,meteohub,2013-03-31 07:22:00,
2013-03-31 00:27:00,58.8,54.0,29.96,North,0,0.0,2.0,84,0.01,,,0.01,meteohub,2013-03-31 07:27:00,
2013-03-31 00:32:00,58.6,54.1,29.96,North,0,0.0,2.0,85,0.01,,,0.01,meteohub,2013-03-31 07:32:00,
2013-03-31 00:37:00,58.5,54.0,29.97,North,0,0.0,2.0,85,0.01,,,0.01,meteohub,2013-03-31 07:37:00,
2013-03-31 00:42:00,58.3,54.1,29.96,North,0,0.0,1.0,86,0.01,,,0.01,meteohub,2013-03-31 07:42:00,
2013-03-31 00:47:00,58.1,54.0,29.96,North,0,0.0,0.0,86,0.01,,,0.01,meteohub,2013-03-31 07:47:00,
2013-03-31 00:52:00,58.1,54.3,29.95,North,0,0.0,1.0,87,0.01,,,0.01,meteohub,2013-03-31 07:52:00,
2013-03-31 00:57:00,58.1,54.3,29.95,North,0,0.0,1.0,87,0.01,,,0.01,meteohub,2013-03-31 07:57:00,
2013-03-31 01:03:00,58.1,54.3,29.96,North,0,0.0,1.0,87,0.01,,,0.01,meteohub,2013-03-31 08:03:00,
2013-03-31 01:08:00,58.1,54.5,29.96,North,0,0.0,0.0,88,0.01,,,0.01,meteohub,2013-03-31 08:08:00,
2013-03-31 01:13:00,57.9,54.3,29.96,North,0,0.0,0.0,88,0.01,,,0.01,meteohub,2013-03-31 08:13:00,
2013-03-31 01:18:00,58.1,54.5,29.96,North,0,0.0,0.0,88,0.00,,,0.01,meteohub,2013-03-31 08:18:00,
2013-03-31 01:23:00,58.1,54.9,29.96,North,0,0.0,0.0,89,0.00,,,0.01,meteohub,2013-03-31 08:23:00,
2013-03-31 01:29:00,58.1,54.9,29.96,North,0,0.0,0.0,89,0.00,,,0.01,meteohub,2013-03-31 08:29:00,
2013-03-31 01:34:00,58.1,54.9,29.96,NW,315,1.0,2.0,89,0.00,,,0.01,meteohub,2013-03-31 08:34:00,
2013-03-31 01:39:00,58.1,55.2,29.95,NW,315,0.0,2.0,90,0.00,,,0.01,meteohub,2013-03-31 08:39:00,
2013-03-31 01:44:00,58.1,54.9,29.96,NW,315,0.0,2.0,89,0.00,,,0.01,meteohub,2013-03-31 08:44:00,
2013-03-31 01:49:00,57.9,54.7,29.96,South,180,2.0,2.0,89,0.00,,,0.01,meteohub,2013-03-31 08:49:00,
2013-03-31 01:55:00,57.7,54.5,29.96,SE,135,0.0,2.0,89,0.00,,,0.01,meteohub,2013-03-31 08:55:00,
2013-03-31 02:00:00,57.7,54.5,29.97,SE,135,0.0,2.0,89,0.00,,,0.01,meteohub,2013-03-31 09:00:00,
2013-03-31 02:05:00,57.7,54.5,29.97,SE,135,0.0,2.0,89,0.00,,,0.01,meteohub,2013-03-31 09:05:00,
2013-03-31 02:11:00,57.7,54.9,29.97,East,90,0.0,1.0,90,0.00,,,0.01,meteohub,2013-03-31 09:11:00,
2013-03-31 02:16:00,57.6,54.7,29.97,SE,135,0.0,1.0,90,0.00,,,0.01,meteohub,2013-03-31 09:16:00,
2013-03-31 02:21:00,57.4,54.5,29.98,East,90,0.0,1.0,90,0.00,,,0.01,meteohub,2013-03-31 09:21:00,
2013-03-31 02:26:00,57.4,54.5,29.98,SW,225,0.0,1.0,90,0.00,,,0.01,meteohub,2013-03-31 09:26:00,
2013-03-31 02:32:00,57.4,54.5,29.98,NE,45,2.0,0.0,90,0.00,,,0.01,meteohub,2013-03-31 09:32:00,
2013-03-31 02:37:00,57.2,54.3,29.98,East,90,2.0,2.0,90,0.00,,,0.01,meteohub,2013-03-31 09:37:00,
2013-03-31 02:42:00,57.2,54.7,29.98,East,90,0.0,2.0,91,0.00,,,0.01,meteohub,2013-03-31 09:42:00,
2013-03-31 02:47:00,57.2,54.7,29.98,North,0,0.0,2.0,91,0.00,,,0.01,meteohub,2013-03-31 09:47:00,
2013-03-31 02:52:00,57.2,54.7,29.97,East,90,0.0,2.0,91,0.00,,,0.01,meteohub,2013-03-31 09:52:00,
2013-03-31 02:57:00,57.4,54.9,29.98,SE,135,0.0,2.0,91,0.00,,,0.01,meteohub,2013-03-31 09:57:00,
2013-03-31 03:02:00,57.4,54.9,29.98,East,90,0.0,2.0,91,0.00,,,0.01,meteohub,2013-03-31 10:02:00,
2013-03-31 03:07:00,57.4,54.9,29.99,East,90,0.0,2.0,91,0.00,,,0.01,meteohub,2013-03-31 10:07:00,
2013-03-31 03:12:00,57.4,55.0,29.98,East,90,1.0,2.0,92,0.00,,,0.01,meteohub,2013-03-31 10:12:00,
2013-03-31 03:18:00,57.4,55.0,29.98,East,90,0.0,1.0,92,0.00,,,0.01,meteohub,2013-03-31 10:18:00,
2013-03-31 03:23:00,57.4,55.0,29.99,SW,225,0.0,1.0,92,0.00,,,0.01,meteohub,2013-03-31 10:23:00,
2013-03-31 03:28:00,57.2,54.9,29.99,East,90,0.0,1.0,92,0.00,,,0.01,meteohub,2013-03-31 10:28:00,
2013-03-31 03:34:00,57.2,54.9,29.99,South,180,0.0,1.0,92,0.00,,,0.01,meteohub,2013-03-31 10:34:00,
2013-03-31 03:39:00,57.0,54.7,29.99,SE,135,0.0,1.0,92,0.00,,,0.01,meteohub,2013-03-31 10:39:00,
2013-03-31 03:44:00,57.0,54.7,29.99,East,90,0.0,1.0,92,0.00,,,0.01,meteohub,2013-03-31 10:44:00,
2013-03-31 03:49:00,57.0,54.7,29.99,South,180,0.0,1.0,92,0.00,,,0.01,meteohub,2013-03-31 10:49:00,
2013-03-31 03:54:00,57.0,55.0,29.99,SW,225,0.0,0.0,93,0.00,,,0.01,meteohub,2013-03-31 10:54:00,
2013-03-31 03:59:00,57.0,55.0,29.99,South,180,0.0,0.0,93,0.00,,,0.01,meteohub,2013-03-31 10:59:00,
2013-03-31 04:04:00,57.0,55.0,29.99,South,180,0.0,0.0,93,0.00,,,0.01,meteohub,2013-03-31 11:04:00,
2013-03-31 04:10:00,56.8,54.9,29.99,South,180,0.0,1.0,93,0.00,,,0.01,meteohub,2013-03-31 11:10:00,
2013-03-31 04:15:00,56.8,54.9,29.99,South,180,0.0,1.0,93,0.00,,,0.01,meteohub,2013-03-31 11:15:00,
2013-03-31 04:20:00,56.8,54.9,29.99,South,180,0.0,0.0,93,0.00,,,0.01,meteohub,2013-03-31 11:20:00,
2013-03-31 04:25:00,56.8,54.9,29.99,NE,45,1.0,0.0,93,0.00,,,0.01,meteohub,2013-03-31 11:25:00,
2013-03-31 04:31:00,56.7,54.7,29.99,NE,45,0.0,1.0,93,0.00,,,0.01,meteohub,2013-03-31 11:31:00,
2013-03-31 04:36:00,56.7,54.7,29.99,South,180,0.0,1.0,93,0.00,,,0.01,meteohub,2013-03-31 11:36:00,
2013-03-31 04:41:00,56.7,55.0,29.99,South,180,0.0,1.0,94,0.00,,,0.01,meteohub,2013-03-31 11:41:00,
2013-03-31 04:46:00,56.5,54.9,29.99,South,180,0.0,1.0,94,0.00,,,0.01,meteohub,2013-03-31 11:46:00,
2013-03-31 04:51:00,56.5,54.9,29.99,SW,225,0.0,1.0,94,0.00,,,0.01,meteohub,2013-03-31 11:51:00,
2013-03-31 04:57:00,56.3,54.7,29.99,SW,225,1.0,1.0,94,0.00,,,0.01,meteohub,2013-03-31 11:57:00,
2013-03-31 05:02:00,56.1,54.5,29.99,SE,135,0.0,1.0,94,0.00,,,0.01,meteohub,2013-03-31 12:02:00,
2013-03-31 05:07:00,56.1,54.5,29.99,SE,135,0.0,1.0,94,0.00,,,0.01,meteohub,2013-03-31 12:07:00,
2013-03-31 05:12:00,55.9,54.3,29.99,South,180,0.0,1.0,94,0.00,,,0.01,meteohub,2013-03-31 12:12:00,
2013-03-31 05:17:00,55.9,54.3,29.99,South,180,0.0,0.0,94,0.00,,,0.01,meteohub,2013-03-31 12:17:00,
2013-03-31 05:22:00,55.9,54.3,29.99,South,180,0.0,0.0,94,0.00,,,0.01,meteohub,2013-03-31 12:22:00,
2013-03-31 05:27:00,55.8,54.1,29.99,South,180,0.0,0.0,94,0.00,,,0.01,meteohub,2013-03-31 12:27:00,
2013-03-31 05:32:00,55.8,54.1,29.99,South,180,0.0,1.0,94,0.00,,,0.01,meteohub,2013-03-31 12:32:00,
2013-03-31 05:37:00,55.8,54.1,30.00,SW,225,0.0,1.0,94,0.00,,,0.01,meteohub,2013-03-31 12:37:00,
2013-03-31 05:42:00,55.8,54.1,30.00,South,180,0.0,0.0,94,0.00,,,0.01,meteohub,2013-03-31 12:42:00,
2013-03-31 05:47:00,55.6,54.0,30.00,South,180,0.0,0.0,94,0.00,,,0.01,meteohub,2013-03-31 12:47:00,
2013-03-31 05:53:00,55.6,54.0,30.00,South,180,0.0,0.0,94,0.00,,,0.01,meteohub,2013-03-31 12:53:00,
2013-03-31 05:58:00,55.6,54.0,30.00,South,180,0.0,0.0,94,0.00,,,0.01,meteohub,2013-03-31 12:58:00,
2013-03-31 06:03:00,55.6,54.0,30.00,South,180,0.0,0.0,94,0.00,,,0.01,meteohub,2013-03-31 13:03:00,
2013-03-31 06:08:00,55.4,53.8,30.00,South,180,0.0,0.0,94,0.00,,,0.01,meteohub,2013-03-31 13:08:00,
2013-03-31 06:14:00,55.4,53.8,30.00,South,180,0.0,0.0,94,0.00,,,0.01,meteohub,2013-03-31 13:14:00,
2013-03-31 06:19:00,55.4,53.8,30.00,South,180,0.0,0.0,94,0.00,,,0.01,meteohub,2013-03-31 13:19:00,
2013-03-31 06:25:00,55.4,53.8,30.01,South,180,0.0,0.0,94,0.00,,,0.01,meteohub,2013-03-31 13:25:00,
2013-03-31 06:30:00,55.4,53.8,30.01,South,180,0.0,0.0,94,0.00,,,0.01,meteohub,2013-03-31 13:30:00,
2013-03-31 06:35:00,55.4,53.8,30.01,South,180,0.0,0.0,94,0.00,,,0.01,meteohub,2013-03-31 13:35:00,
2013-03-31 06:40:00,55.4,53.8,30.01,South,180,0.0,0.0,94,0.00,,,0.01,meteohub,2013-03-31 13:40:00,
2013-03-31 06:46:00,55.4,54.0,30.01,South,180,0.0,0.0,95,0.00,,,0.01,meteohub,2013-03-31 13:46:00,
2013-03-31 06:51:00,55.4,54.0,30.01,South,180,0.0,0.0,95,0.00,,,0.01,meteohub,2013-03-31 13:51:00,
2013-03-31 06:56:00,55.4,54.0,30.01,South,180,0.0,0.0,95,0.00,,,0.01,meteohub,2013-03-31 13:56:00,
2013-03-31 07:01:00,55.4,54.0,30.01,South,180,0.0,0.0,95,0.00,,,0.01,meteohub,2013-03-31 14:01:00,
2013-03-31 07:06:00,55.4,54.0,30.01,South,180,0.0,0.0,95,0.00,,,0.01,meteohub,2013-03-31 14:06:00,
2013-03-31 07:11:00,55.6,54.1,30.02,South,180,0.0,0.0,95,0.00,,,0.01,meteohub,2013-03-31 14:11:00,
2013-03-31 07:17:00,55.6,54.1,30.02,South,180,0.0,0.0,95,0.00,,,0.01,meteohub,2013-03-31 14:17:00,
2013-03-31 07:22:00,55.8,54.3,30.01,South,180,0.0,0.0,95,0.00,,,0.01,meteohub,2013-03-31 14:22:00,
2013-03-31 07:27:00,55.8,54.3,30.01,South,180,0.0,0.0,95,0.00,,,0.01,meteohub,2013-03-31 14:27:00,
2013-03-31 07:32:00,55.8,54.3,30.01,South,180,0.0,0.0,95,0.00,,,0.01,meteohub,2013-03-31 14:32:00,
2013-03-31 07:38:00,55.9,54.5,30.01,South,180,0.0,0.0,95,0.00,,,0.01,meteohub,2013-03-31 14:38:00,
2013-03-31 07:43:00,56.1,55.0,30.02,South,180,0.0,1.0,96,0.00,,,0.01,meteohub,2013-03-31 14:43:00,
2013-03-31 07:48:00,56.3,55.2,30.02,SW,225,0.0,1.0,96,0.00,,,0.01,meteohub,2013-03-31 14:48:00,
2013-03-31 07:53:00,56.5,55.4,30.02,SE,135,0.0,1.0,96,0.00,,,0.01,meteohub,2013-03-31 14:53:00,
2013-03-31 07:59:00,56.7,55.6,30.02,South,180,0.0,1.0,96,0.00,,,0.01,meteohub,2013-03-31 14:59:00,
2013-03-31 08:04:00,56.8,55.8,30.03,South,180,0.0,1.0,96,0.00,,,0.01,meteohub,2013-03-31 15:04:00,
2013-03-31 08:09:00,57.0,55.9,30.03,SW,225,1.0,1.0,96,0.00,,,0.01,meteohub,2013-03-31 15:09:00,
2013-03-31 08:14:00,57.2,56.1,30.03,South,180,1.0,2.0,96,0.00,,,0.01,meteohub,2013-03-31 15:14:00,
2013-03-31 08:20:00,57.2,56.1,30.03,SW,225,0.0,2.0,96,0.00,,,0.01,meteohub,2013-03-31 15:20:00,
2013-03-31 08:25:00,57.2,56.1,30.03,NE,45,0.0,1.0,96,0.00,,,0.01,meteohub,2013-03-31 15:25:00,
2013-03-31 08:30:00,57.4,56.3,30.03,South,180,0.0,1.0,96,0.00,,,0.01,meteohub,2013-03-31 15:30:00,
2013-03-31 08:36:00,57.6,56.5,30.03,East,90,0.0,1.0,96,0.00,,,0.01,meteohub,2013-03-31 15:36:00,
2013-03-31 08:42:00,57.9,56.8,30.03,South,180,0.0,1.0,96,0.00,,,0.01,meteohub,2013-03-31 15:42:00,
2013-03-31 08:47:00,58.5,57.6,30.03,South,180,1.0,2.0,97,0.00,,,0.01,meteohub,2013-03-31 15:47:00,
2013-03-31 08:52:00,59.2,58.3,30.03,South,180,0.0,2.0,97,0.00,,,0.01,meteohub,2013-03-31 15:52:00,
2013-03-31 08:57:00,59.5,58.5,30.03,South,180,0.0,2.0,96,0.00,,,0.01,meteohub,2013-03-31 15:57:00,
2013-03-31 09:02:00,59.7,58.6,30.02,South,180,0.0,2.0,96,0.00,,,0.01,meteohub,2013-03-31 16:02:00,
2013-03-31 09:08:00,59.9,58.8,30.03,SE,135,1.0,0.0,96,0.00,,,0.01,meteohub,2013-03-31 16:08:00,
2013-03-31 09:13:00,60.4,59.0,30.02,South,180,0.0,2.0,95,0.00,,,0.01,meteohub,2013-03-31 16:13:00,
2013-03-31 09:18:00,61.3,59.9,30.02,East,90,1.0,2.0,95,0.00,,,0.01,meteohub,2013-03-31 16:18:00,
2013-03-31 09:23:00,61.9,60.1,30.03,South,180,0.0,2.0,94,0.00,,,0.01,meteohub,2013-03-31 16:23:00,
2013-03-31 09:28:00,61.9,59.9,30.03,SW,225,1.0,2.0,93,0.00,,,0.01,meteohub,2013-03-31 16:28:00,
2013-03-31 09:33:00,62.2,59.9,30.03,SW,225,2.0,2.0,92,0.00,,,0.01,meteohub,2013-03-31 16:33:00,
2013-03-31 09:39:00,62.6,59.9,30.03,South,180,0.0,2.0,91,0.00,,,0.01,meteohub,2013-03-31 16:39:00,
2013-03-31 09:44:00,63.3,60.3,30.04,South,180,1.0,2.0,90,0.00,,,0.01,meteohub,2013-03-31 16:44:00,
2013-03-31 09:49:00,64.2,61.2,30.04,SE,135,0.0,2.0,90,0.00,,,0.01,meteohub,2013-03-31 16:49:00,
2013-03-31 09:54:00,64.8,61.2,30.04,West,270,0.0,2.0,88,0.00,,,0.01,meteohub,2013-03-31 16:54:00,
2013-03-31 09:59:00,64.6,60.3,30.04,North,0,3.0,3.0,86,0.00,,,0.01,meteohub,2013-03-31 16:59:00,
2013-03-31 10:04:00,64.4,59.7,30.04,South,180,1.0,2.0,85,0.00,,,0.01,meteohub,2013-03-31 17:04:00,
2013-03-31 10:09:00,64.2,59.5,30.04,South,180,2.0,3.0,85,0.00,,,0.01,meteohub,2013-03-31 17:09:00,
2013-03-31 10:15:00,65.3,60.6,30.04,North,0,0.0,3.0,85,0.00,,,0.01,meteohub,2013-03-31 17:15:00,
2013-03-31 10:20:00,66.2,60.8,30.04,South,180,1.0,2.0,83,0.00,,,0.01,meteohub,2013-03-31 17:20:00,
2013-03-31 10:25:00,67.1,61.2,30.04,West,270,2.0,2.0,81,0.00,,,0.01,meteohub,2013-03-31 17:25:00,
2013-03-31 10:30:00,67.5,60.8,30.04,SE,135,2.0,3.0,79,0.00,,,0.01,meteohub,2013-03-31 17:30:00,
2013-03-31 10:36:00,68.0,60.8,30.04,SW,225,2.0,4.0,78,0.00,,,0.01,meteohub,2013-03-31 17:36:00,
2013-03-31 10:41:00,68.2,60.6,30.04,SE,135,2.0,4.0,77,0.00,,,0.01,meteohub,2013-03-31 17:41:00,
2013-03-31 10:46:00,68.4,60.1,30.04,South,180,3.0,3.0,75,0.00,,,0.01,meteohub,2013-03-31 17:46:00,
2013-03-31 10:51:00,68.4,60.4,30.04,East,90,1.0,3.0,76,0.00,,,0.01,meteohub,2013-03-31 17:51:00,
2013-03-31 10:56:00,69.1,60.8,30.04,SW,225,2.0,3.0,75,0.00,,,0.01,meteohub,2013-03-31 17:56:00,
2013-03-31 11:02:00,69.8,61.2,30.04,West,270,2.0,3.0,74,0.00,,,0.01,meteohub,2013-03-31 18:02:00,
2013-03-31 11:07:00,70.3,60.8,30.04,South,180,2.0,2.0,72,0.00,,,0.01,meteohub,2013-03-31 18:07:00,
2013-03-31 11:12:00,70.5,60.3,30.04,South,180,1.0,3.0,70,0.00,,,0.01,meteohub,2013-03-31 18:12:00,
2013-03-31 11:17:00,70.5,59.9,30.04,South,180,2.0,3.0,69,0.00,,,0.01,meteohub,2013-03-31 18:17:00,
2013-03-31 11:22:00,70.3,59.4,30.04,West,270,2.0,3.0,68,0.00,,,0.01,meteohub,2013-03-31 18:22:00,
2013-03-31 11:27:00,70.3,59.4,30.04,NW,315,2.0,3.0,68,0.00,,,0.01,meteohub,2013-03-31 18:27:00,
2013-03-31 11:32:00,70.7,58.8,30.04,South,180,2.0,2.0,66,0.00,,,0.01,meteohub,2013-03-31 18:32:00,
2013-03-31 11:38:00,71.1,59.2,30.03,SW,225,2.0,3.0,66,0.00,,,0.01,meteohub,2013-03-31 18:38:00,
2013-03-31 11:43:00,71.8,59.4,30.04,South,180,2.0,3.0,65,0.00,,,0.01,meteohub,2013-03-31 18:43:00,
2013-03-31 11:48:00,71.8,58.5,30.03,NW,315,2.0,3.0,63,0.00,,,0.01,meteohub,2013-03-31 18:48:00,
2013-03-31 11:53:00,71.2,57.9,30.03,South,180,2.0,2.0,63,0.00,,,0.01,meteohub,2013-03-31 18:53:00,
2013-03-31 11:58:00,71.2,58.5,30.03,SW,225,2.0,2.0,64,0.00,,,0.01,meteohub,2013-03-31 18:58:00,
2013-03-31 12:03:00,71.8,58.1,30.03,SW,225,2.0,3.0,62,0.00,,,0.01,meteohub,2013-03-31 19:03:00,
2013-03-31 12:09:00,72.1,58.5,30.03,SW,225,2.0,3.0,62,0.00,,,0.01,meteohub,2013-03-31 19:09:00,
2013-03-31 12:14:00,72.1,58.5,30.02,WNW,293,2.0,3.0,62,0.00,,,0.01,meteohub,2013-03-31 19:14:00,
2013-03-31 12:19:00,72.3,58.1,30.02,East,90,2.0,2.0,61,0.00,,,0.01,meteohub,2013-03-31 19:19:00,
2013-03-31 12:24:00,72.7,57.9,30.02,East,90,2.0,2.0,60,0.00,,,0.01,meteohub,2013-03-31 19:24:00,
2013-03-31 12:29:00,73.0,57.9,30.02,North,0,2.0,3.0,59,0.00,,,0.01,meteohub,2013-03-31 19:29:00,
2013-03-31 12:35:00,73.6,58.3,30.02,East,90,2.0,3.0,59,0.00,,,0.01,meteohub,2013-03-31 19:35:00,
2013-03-31 12:40:00,73.9,57.2,30.02,SW,225,2.0,3.0,56,0.00,,,0.01,meteohub,2013-03-31 19:40:00,
2013-03-31 12:45:00,73.6,56.8,30.02,SE,135,2.0,4.0,56,0.00,,,0.01,meteohub,2013-03-31 19:45:00,
2013-03-31 12:51:00,73.8,56.1,30.01,South,180,2.0,4.0,54,0.00,,,0.01,meteohub,2013-03-31 19:51:00,
2013-03-31 12:56:00,73.6,55.9,30.01,WSW,248,4.0,4.0,54,0.00,,,0.01,meteohub,2013-03-31 19:56:00,
2013-03-31 13:01:00,73.6,55.4,30.01,SW,225,2.0,4.0,53,0.00,,,0.01,meteohub,2013-03-31 20:01:00,
2013-03-31 13:06:00,73.6,55.4,30.01,South,180,2.0,4.0,53,0.00,,,0.01,meteohub,2013-03-31 20:06:00,
2013-03-31 13:12:00,74.3,56.7,30.01,SW,225,3.0,4.0,54,0.00,,,0.01,meteohub,2013-03-31 20:12:00,
2013-03-31 13:17:00,74.5,56.3,30.01,South,180,2.0,4.0,53,0.00,,,0.01,meteohub,2013-03-31 20:17:00,
2013-03-31 13:22:00,74.3,55.6,30.00,East,90,3.0,4.0,52,0.00,,,0.01,meteohub,2013-03-31 20:22:00,
2013-03-31 13:27:00,74.5,55.8,30.00,SW,225,2.0,4.0,52,0.00,,,0.01,meteohub,2013-03-31 20:27:00,
2013-03-31 13:32:00,74.5,55.2,29.99,SW,225,3.0,4.0,51,0.00,,,0.01,meteohub,2013-03-31 20:32:00,
2013-03-31 13:37:00,75.2,55.8,29.99,SW,225,2.0,4.0,51,0.00,,,0.01,meteohub,2013-03-31 20:37:00,
2013-03-31 13:43:00,75.6,55.0,29.99,SW,225,3.0,4.0,49,0.00,,,0.01,meteohub,2013-03-31 20:43:00,
2013-03-31 13:48:00,75.6,55.6,29.98,South,180,2.0,3.0,50,0.00,,,0.01,meteohub,2013-03-31 20:48:00,
2013-03-31 13:53:00,76.3,55.8,29.99,South,180,2.0,3.0,49,0.00,,,0.01,meteohub,2013-03-31 20:53:00,
2013-03-31 13:58:00,76.3,55.2,29.98,East,90,2.0,3.0,48,0.00,,,0.01,meteohub,2013-03-31 20:58:00,
2013-03-31 14:03:00,75.9,54.9,29.98,SW,225,2.0,2.0,48,0.00,,,0.01,meteohub,2013-03-31 21:03:00,
2013-03-31 14:09:00,75.2,54.1,29.98,SE,135,2.0,2.0,48,0.00,,,0.01,meteohub,2013-03-31 21:09:00,
2013-03-31 14:14:00,74.8,53.8,29.97,West,270,3.0,3.0,48,0.00,,,0.01,meteohub,2013-03-31 21:14:00,
2013-03-31 14:19:00,74.7,54.3,29.97,SE,135,2.0,3.0,49,0.00,,,0.01,meteohub,2013-03-31 21:19:00,
2013-03-31 14:24:00,75.0,54.0,29.97,South,180,2.0,3.0,48,0.00,,,0.01,meteohub,2013-03-31 21:24:00,
2013-03-31 14:26:00,75.2,54.7,29.97,South,180,2.0,3.0,49,0.00,,,0.01,meteohub,2013-03-31 21:26:00,
2013-03-31 14:32:00,74.7,52.5,29.97,South,180,1.0,3.0,46,0.00,,,0.01,meteohub,2013-03-31 21:32:00,
2013-03-31 14:37:00,73.9,52.5,29.96,SE,135,2.0,3.0,47,0.00,,,0.01,meteohub,2013-03-31 21:37:00,
2013-03-31 14:42:00,73.2,52.3,29.96,South,180,2.0,3.0,48,0.00,,,0.01,meteohub,2013-03-31 21:42:00,
2013-03-31 14:47:00,72.7,52.3,29.96,SE,135,1.0,3.0,49,0.00,,,0.01,meteohub,2013-03-31 21:47:00,
2013-03-31 14:52:00,72.3,52.2,29.96,West,270,2.0,3.0,49,0.00,,,0.01,meteohub,2013-03-31 21:52:00,
2013-03-31 14:58:00,72.3,53.2,29.95,South,180,1.0,3.0,51,0.00,,,0.01,meteohub,2013-03-31 21:58:00,
2013-03-31 15:03:00,72.5,53.4,29.96,SE,135,2.0,3.0,51,0.00,,,0.01,meteohub,2013-03-31 22:03:00,
2013-03-31 15:08:00,72.7,53.4,29.96,South,180,2.0,3.0,51,0.00,,,0.01,meteohub,2013-03-31 22:08:00,
2013-03-31 15:13:00,72.9,53.1,29.95,West,270,1.0,2.0,50,0.00,,,0.01,meteohub,2013-03-31 22:13:00,
2013-03-31 15:18:00,73.0,52.7,29.95,West,270,1.0,2.0,49,0.00,,,0.01,meteohub,2013-03-31 22:18:00,
2013-03-31 15:24:00,72.9,52.5,29.95,East,90,2.0,2.0,49,0.00,,,0.01,meteohub,2013-03-31 22:24:00,
2013-03-31 15:29:00,72.7,52.3,29.95,SE,135,2.0,3.0,49,0.00,,,0.01,meteohub,2013-03-31 22:29:00,
2013-03-31 15:34:00,72.7,51.8,29.94,NW,315,1.0,3.0,48,0.00,,,0.01,meteohub,2013-03-31 22:34:00,
2013-03-31 15:39:00,72.5,52.3,29.94,SE,135,2.0,2.0,49,0.00,,,0.01,meteohub,2013-03-31 22:39:00,
2013-03-31 15:44:00,72.1,52.0,29.94,South,180,1.0,3.0,49,0.00,,,0.01,meteohub,2013-03-31 22:44:00,
2013-03-31 15:50:00,72.0,51.8,29.94,South,180,2.0,3.0,49,0.00,,,0.01,meteohub,2013-03-31 22:50:00,
2013-03-31 15:55:00,71.6,52.0,29.94,SW,225,1.0,3.0,50,0.00,,,0.01,meteohub,2013-03-31 22:55:00,
2013-03-31 16:00:00,71.1,51.4,29.94,West,270,1.0,3.0,50,0.00,,,0.01,meteohub,2013-03-31 23:00:00,
2013-03-31 16:05:00,70.5,53.6,29.95,West,270,2.0,2.0,55,0.00,,,0.01,meteohub,2013-03-31 23:05:00,
2013-03-31 16:10:00,69.3,54.9,29.95,South,180,2.0,4.0,60,0.00,,,0.01,meteohub,2013-03-31 23:10:00,
2013-03-31 16:16:00,67.3,54.3,29.96,SW,225,4.0,4.0,63,0.00,,,0.01,meteohub,2013-03-31 23:16:00,
2013-03-31 16:21:00,64.0,51.3,29.97,South,180,8.0,8.0,63,0.00,,,0.01,meteohub,2013-03-31 23:21:00,
2013-03-31 16:26:00,60.1,49.8,29.97,SE,135,6.0,9.0,69,0.00,,,0.01,meteohub,2013-03-31 23:26:00,
2013-03-31 16:31:00,57.0,47.7,29.98,SW,225,7.0,9.0,71,0.00,,,0.01,meteohub,2013-03-31 23:31:00,
2013-03-31 16:37:00,54.1,46.0,29.98,SW,225,2.0,9.0,74,0.00,,,0.01,meteohub,2013-03-31 23:37:00,
2013-03-31 16:42:00,53.6,46.9,29.97,West,270,2.0,8.0,78,0.00,,,0.01,meteohub,2013-03-31 23:42:00,
2013-03-31 16:47:00,53.6,47.7,29.97,SW,225,2.0,7.0,80,0.00,,,0.01,meteohub,2013-03-31 23:47:00,
2013-03-31 16:52:00,53.6,48.2,29.97,West,270,0.0,4.0,82,0.00,,,0.01,meteohub,2013-03-31 23:52:00,
2013-03-31 16:57:00,53.8,48.7,29.97,SW,225,0.0,2.0,83,0.00,,,0.01,meteohub,2013-03-31 23:57:00,
2013-03-31 17:03:00,54.0,49.3,29.97,SW,225,3.0,3.0,84,0.00,,,0.01,meteohub,2013-04-01 00:03:00,
2013-03-31 17:08:00,54.3,50.2,29.97,East,90,2.0,4.0,86,0.00,,,0.00,meteohub,2013-04-01 00:08:00,
2013-03-31 17:13:00,54.5,50.4,29.97,West,270,2.0,4.0,86,0.00,,,0.00,meteohub,2013-04-01 00:13:00,
2013-03-31 17:18:00,54.7,50.9,29.96,North,0,3.0,5.0,87,0.00,,,0.00,meteohub,2013-04-01 00:18:00,
2013-03-31 17:23:00,55.2,51.4,29.96,South,180,4.0,5.0,87,0.00,,,0.00,meteohub,2013-04-01 00:23:00,
2013-03-31 17:29:00,55.4,51.6,29.96,North,0,1.0,6.0,87,0.00,,,0.00,meteohub,2013-04-01 00:29:00,
2013-03-31 17:34:00,55.6,51.8,29.96,NE,45,0.0,6.0,87,0.00,,,0.00,meteohub,2013-04-01 00:34:00,
2013-03-31 17:39:00,55.6,51.8,29.96,NE,45,2.0,6.0,87,0.00,,,0.00,meteohub,2013-04-01 00:39:00,
2013-03-31 17:44:00,55.8,52.0,29.96,North,0,0.0,2.0,87,0.00,,,0.00,meteohub,2013-04-01 00:44:00,
2013-03-31 17:49:00,55.9,52.2,29.96,North,0,1.0,2.0,87,0.00,,,0.00,meteohub,2013-04-01 00:49:00,
2013-03-31 17:55:00,56.1,52.3,29.96,NE,45,2.0,2.0,87,0.00,,,0.00,meteohub,2013-04-01 00:55:00,
2013-03-31 18:00:00,56.3,52.5,29.96,North,0,0.0,2.0,87,0.00,,,0.00,meteohub,2013-04-01 01:00:00,
2013-03-31 18:05:00,56.5,52.7,29.96,North,0,0.0,3.0,87,0.00,,,0.00,meteohub,2013-04-01 01:05:00,
2013-03-31 18:10:00,56.5,52.7,29.96,East,90,1.0,3.0,87,0.00,,,0.00,meteohub,2013-04-01 01:10:00,
2013-03-31 18:16:00,56.7,52.9,29.96,NE,45,0.0,3.0,87,0.00,,,0.00,meteohub,2013-04-01 01:16:00,
2013-03-31 18:21:00,56.7,52.9,29.96,NE,45,1.0,2.0,87,0.00,,,0.00,meteohub,2013-04-01 01:21:00,
2013-03-31 18:27:00,56.7,52.9,29.96,NE,45,1.0,2.0,87,0.00,,,0.00,meteohub,2013-04-01 01:27:00,
2013-03-31 18:32:00,56.7,52.9,29.96,NE,45,1.0,2.0,87,0.00,,,0.00,meteohub,2013-04-01 01:32:00,
2013-03-31 18:37:00,56.8,53.2,29.97,SW,225,1.0,2.0,88,0.00,,,0.00,meteohub,2013-04-01 01:37:00,
2013-03-31 18:42:00,56.8,53.2,29.97,SW,225,0.0,2.0,88,0.00,,,0.00,meteohub,2013-04-01 01:42:00,
2013-03-31 18:47:00,56.8,53.2,29.97,SW,225,1.0,2.0,88,0.00,,,0.00,meteohub,2013-04-01 01:47:00,
2013-03-31 18:52:00,57.0,53.8,29.97,SW,225,0.0,2.0,89,0.00,,,0.00,meteohub,2013-04-01 01:52:00,
2013-03-31 18:58:00,57.0,53.8,29.97,SW,225,0.0,2.0,89,0.00,,,0.00,meteohub,2013-04-01 01:58:00,
2013-03-31 19:03:00,57.0,53.8,29.97,NE,45,0.0,2.0,89,0.00,,,0.00,meteohub,2013-04-01 02:03:00,
2013-03-31 19:08:00,57.0,54.1,29.97,South,180,0.0,2.0,90,0.00,,,0.00,meteohub,2013-04-01 02:08:00,
2013-03-31 19:13:00,57.0,54.1,29.97,West,270,1.0,2.0,90,0.00,,,0.00,meteohub,2013-04-01 02:13:00,
2013-03-31 19:18:00,57.0,54.1,29.97,West,270,0.0,2.0,90,0.00,,,0.00,meteohub,2013-04-01 02:18:00,
2013-03-31 19:23:00,57.2,54.3,29.97,North,0,0.0,2.0,90,0.00,,,0.00,meteohub,2013-04-01 02:23:00,
2013-03-31 19:28:00,57.0,54.1,29.97,South,180,0.0,2.0,90,0.01,,,0.01,meteohub,2013-04-01 02:28:00,
2013-03-31 19:34:00,57.0,54.1,29.97,SE,135,0.0,0.0,90,0.01,,,0.01,meteohub,2013-04-01 02:34:00,
2013-03-31 19:39:00,56.8,54.0,29.97,East,90,0.0,0.0,90,0.01,,,0.01,meteohub,2013-04-01 02:39:00,
2013-03-31 19:44:00,56.7,54.1,29.96,East,90,0.0,0.0,91,0.01,,,0.01,meteohub,2013-04-01 02:44:00,
2013-03-31 19:49:00,56.7,54.1,29.96,East,90,0.0,0.0,91,0.01,,,0.01,meteohub,2013-04-01 02:49:00,
2013-03-31 19:55:00,56.5,54.0,29.96,East,90,0.0,0.0,91,0.01,,,0.01,meteohub,2013-04-01 02:55:00,
2013-03-31 20:00:00,56.3,53.8,29.97,East,90,0.0,0.0,91,0.01,,,0.01,meteohub,2013-04-01 03:00:00,
2013-03-31 20:05:00,56.3,53.8,29.97,East,90,0.0,0.0,91,0.01,,,0.01,meteohub,2013-04-01 03:05:00,
2013-03-31 20:10:00,56.1,53.6,29.97,East,90,0.0,0.0,91,0.01,,,0.01,meteohub,2013-04-01 03:10:00,
2013-03-31 20:15:00,55.9,53.4,29.98,East,90,0.0,0.0,91,0.01,,,0.01,meteohub,2013-04-01 03:15:00,
2013-03-31 20:20:00,55.8,53.4,29.98,East,90,0.0,0.0,92,0.01,,,0.01,meteohub,2013-04-01 03:20:00,
2013-03-31 20:25:00,55.8,53.4,29.98,East,90,0.0,0.0,92,0.00,,,0.01,meteohub,2013-04-01 03:25:00,
2013-03-31 20:31:00,55.6,53.2,29.98,East,90,0.0,0.0,92,0.00,,,0.01,meteohub,2013-04-01 03:31:00,
2013-03-31 20:36:00,55.6,53.2,29.99,East,90,0.0,0.0,92,0.00,,,0.01,meteohub,2013-04-01 03:36:00,
2013-03-31 20:41:00,55.4,53.1,29.99,East,90,0.0,0.0,92,0.00,,,0.01,meteohub,2013-04-01 03:41:00,
2013-03-31 20:47:00,55.4,53.1,29.99,East,90,0.0,0.0,92,0.00,,,0.01,meteohub,2013-04-01 03:47:00,
2013-03-31 20:52:00,55.4,53.1,29.99,East,90,0.0,0.0,92,0.00,,,0.01,meteohub,2013-04-01 03:52:00,
2013-03-31 20:57:00,55.0,52.7,29.99,East,90,0.0,0.0,92,0.00,,,0.01,meteohub,2013-04-01 03:57:00,
2013-03-31 21:00:00,54.9,52.5,29.99,East,90,0.0,0.0,92,0.00,,,0.01,meteohub,2013-04-01 04:00:00,
2013-03-31 21:01:00,54.9,52.5,29.99,East,90,0.0,0.0,92,0.00,,,0.01,meteohub,2013-04-01 04:01:00,
2013-03-31 21:04:00,54.9,52.5,29.99,East,90,0.0,0.0,92,0.00,,,0.01,meteohub,2013-04-01 04:04:00,
2013-03-31 21:09:00,54.7,52.3,29.99,East,90,0.0,0.0,92,0.00,,,0.01,meteohub,2013-04-01 04:09:00,
2013-03-31 21:14:00,54.5,52.2,29.99,East,90,0.0,0.0,92,0.00,,,0.01,meteohub,2013-04-01 04:14:00,
2013-03-31 21:15:00,54.5,52.5,29.99,East,90,0.0,0.0,93,0.00,,,0.01,meteohub,2013-04-01 04:15:00,
2013-03-31 21:20:00,54.5,52.5,30.00,East,90,0.0,0.0,93,0.00,,,0.01,meteohub,2013-04-01 04:20:00,
2013-03-31 21:25:00,54.3,52.3,30.00,East,90,0.0,0.0,93,0.00,,,0.01,meteohub,2013-04-01 04:25:00,
2013-03-31 21:31:00,54.3,52.3,30.00,East,90,0.0,0.0,93,0.00,,,0.01,meteohub,2013-04-01 04:31:00,
2013-03-31 21:36:00,54.3,52.3,30.00,East,90,0.0,0.0,93,0.00,,,0.01,meteohub,2013-04-01 04:36:00,
2013-03-31 21:41:00,54.3,52.3,30.00,East,90,0.0,0.0,93,0.00,,,0.01,meteohub,2013-04-01 04:41:00,
2013-03-31 21:46:00,54.3,52.3,30.00,East,90,0.0,0.0,93,0.00,,,0.01,meteohub,2013-04-01 04:46:00,
2013-03-31 21:52:00,54.5,52.9,30.01,South,180,0.0,0.0,94,0.00,,,0.01,meteohub,2013-04-01 04:52:00,
2013-03-31 21:57:00,54.5,52.9,30.01,South,180,0.0,0.0,94,0.00,,,0.01,meteohub,2013-04-01 04:57:00,
2013-03-31 22:02:00,54.5,52.9,30.01,South,180,0.0,0.0,94,0.00,,,0.01,meteohub,2013-04-01 05:02:00,
2013-03-31 22:07:00,54.5,52.9,30.01,South,180,0.0,0.0,94,0.00,,,0.01,meteohub,2013-04-01 05:07:00,
2013-03-31 22:13:00,54.5,52.9,30.01,South,180,0.0,0.0,94,0.00,,,0.01,meteohub,2013-04-01 05:13:00,
2013-03-31 22:18:00,54.5,52.9,30.01,South,180,0.0,0.0,94,0.00,,,0.01,meteohub,2013-04-01 05:18:00,
2013-03-31 22:23:00,54.5,52.9,30.01,South,180,0.0,0.0,94,0.00,,,0.01,meteohub,2013-04-01 05:23:00,
2013-03-31 22:28:00,54.5,52.9,30.01,South,180,0.0,0.0,94,0.00,,,0.01,meteohub,2013-04-01 05:28:00,
2013-03-31 22:33:00,54.5,52.9,30.01,South,180,0.0,0.0,94,0.00,,,0.01,meteohub,2013-04-01 05:33:00,
2013-03-31 22:38:00,54.5,52.9,30.01,South,180,0.0,0.0,94,0.00,,,0.01,meteohub,2013-04-01 05:38:00,
2013-03-31 22:44:00,54.5,52.9,30.01,South,180,0.0,0.0,94,0.00,,,0.01,meteohub,2013-04-01 05:44:00,
2013-03-31 22:49:00,54.5,52.9,30.01,South,180,0.0,0.0,94,0.00,,,0.01,meteohub,2013-04-01 05:49:00,
2013-03-31 22:54:00,54.5,52.9,30.01,South,180,0.0,0.0,94,0.00,,,0.01,meteohub,2013-04-01 05:54:00,
2013-03-31 22:59:00,54.5,52.9,30.01,South,180,0.0,0.0,94,0.00,,,0.01,meteohub,2013-04-01 05:59:00,
2013-03-31 23:04:00,54.5,52.9,30.01,South,180,0.0,0.0,94,0.00,,,0.01,meteohub,2013-04-01 06:04:00,
2013-03-31 23:09:00,54.5,52.9,30.00,South,180,0.0,0.0,94,0.00,,,0.01,meteohub,2013-04-01 06:09:00,
2013-03-31 23:15:00,54.3,52.7,30.00,South,180,0.0,0.0,94,0.00,,,0.01,meteohub,2013-04-01 06:15:00,
2013-03-31 23:20:00,54.3,52.7,30.00,South,180,0.0,0.0,94,0.00,,,0.01,meteohub,2013-04-01 06:20:00,
2013-03-31 23:25:00,54.1,52.5,30.00,South,180,0.0,0.0,94,0.00,,,0.01,meteohub,2013-04-01 06:25:00,
2013-03-31 23:30:00,54.1,52.5,30.00,South,180,0.0,0.0,94,0.00,,,0.01,meteohub,2013-04-01 06:30:00,
2013-03-31 23:36:00,54.0,52.3,30.00,South,180,0.0,0.0,94,0.00,,,0.01,meteohub,2013-04-01 06:36:00,
2013-03-31 23:41:00,54.0,52.3,30.00,South,180,0.0,0.0,94,0.00,,,0.01,meteohub,2013-04-01 06:41:00,
2013-03-31 23:46:00,53.8,52.3,30.01,South,180,0.0,0.0,95,0.00,,,0.01,meteohub,2013-04-01 06:46:00,
2013-03-31 23:52:00,53.8,52.3,30.01,South,180,0.0,0.0,95,0.00,,,0.01,meteohub,2013-04-01 06:52:00,
2013-03-31 23:57:00,53.8,52.3,30.01,South,180,0.0,0.0,95,0.00,,,0.01,meteohub,2013-04-01 06:57:00,